Content
SEND FEEDBACK

Daily
Averages
Monthly
Summary
United States of America

WILMINGTON, NORTH CAROLINA


Home > North America > United States > North Carolina
Elevation: 21 meters     Latitude: 34 16N     Longitude: 077 54W

WEATHER
 
SELECT A DAY
Number of Records: 208,807;   Date Range: 1/1/95 - 7/29/14
 
SHARE

PRINT THIS DATA

[ ← Previous Day ]
WEATHER ALMANAC - 21 JANUARY, 2013
[ Next Day → ]
[ °F ]   °C
Weather ElementAverageHighLow
Temperature10.2 °C18.3 °C (1:53 pm)1.7 °C (6:53 am)
Dewpoint3.2 °C6.7 °C (6:53 pm)0.6 °C (6:53 am)
Humidity65 %92 % (6:53 am)38 % (2:53 pm)
Barometer1015.9 hPa1019 hPa (9:53 am)1012.9 hPa (3:53 pm)
Wind Speed8.9 km/h24.1 km/h (2:53 pm)
Wind Gust35.2 km/h (2:53 pm)
Weather ElementAverage
Visibility16.1 km
Wind DirectionSE (134.8 °)

Weather ElementTotal
Precipitation---
Heating Degree Days8.3 (Base 18.3)
Averaged from 23 records on 21 January, 2013
WEATHER CONDITIONS BREAKOUT
WIND DIRECTION BREAKOUT
WEATHER BY HOUR - 21 JANUARY, 2013
[ °F ]   °C
Local TimeTemperatureDewpointHumidityBarometerVisibilityWind DirectionWind SpeedGust SpeedPrecipitationEventsConditions
1:53 AM4.4 °C2.2 °C86 %1018.3 hPa16.1 kmCalmClear
2:53 AM3.3 °C1.7 °C89 %1017.9 hPa16.1 kmCalmClear
3:53 AM2.8 °C1.1 °C89 %1017.9 hPa16.1 kmCalmClear
4:53 AM2.8 °C1.1 °C89 %1017.9 hPa16.1 kmCalmClear
5:53 AM2.8 °C1.1 °C89 %1017.6 hPa14.5 kmCalmClear
6:53 AM1.7 °C0.6 °C92 %1018.3 hPa16.1 kmCalmClear
7:53 AM2.8 °C1.1 °C89 %1018.3 hPa16.1 kmCalmClear
8:53 AM7.8 °C2.8 °C71 %1018.6 hPa16.1 kmCalmClear
9:53 AM11.1 °C1.7 °C53 %1019 hPa16.1 kmEast (80°)9.3 km/hClear
10:53 AM14.4 °C3.9 °C49 %1018.3 hPa16.1 kmESE (120°)11.1 km/hClear
11:53 AM16.1 °C4.4 °C46 %1016.9 hPa16.1 kmSE (130°)7.4 km/hClear
12:53 PM17.2 °C5 °C45 %1015.2 hPa16.1 kmSouth (190°)14.8 km/hClear
1:53 PM18.3 °C5 °C42 %1013.9 hPa16.1 kmSSW (200°)18.5 km/hClear
2:53 PM17.8 °C3.3 °C38 %1013.2 hPa16.1 kmSW (230°)24.1 km/h35.2 km/hClear
3:53 PM16.7 °C3.9 °C43 %1012.9 hPa16.1 kmSW (220°)22.2 km/hClear
4:53 PM15.6 °C5.6 °C51 %1012.9 hPa16.1 kmSW (220°)14.8 km/hClear
5:53 PM13.9 °C6.1 °C59 %1013.2 hPa16.1 kmSSW (210°)13 km/hClear
6:53 PM12.2 °C6.7 °C69 %1013.5 hPa16.1 kmSW (230°)9.3 km/hClear
7:53 PM11.7 °C5.6 °C66 %1013.9 hPa16.1 kmWSW (250°)11.1 km/hClear
8:53 PM11.1 °C3.9 °C61 %1014.2 hPa16.1 kmWSW (250°)13 km/hClear
9:53 PM10.6 °C3.3 °C61 %1014.6 hPa16.1 kmWSW (250°)13 km/hClear
10:53 PM9.4 °C2.2 °C61 %1014.6 hPa16.1 kmWSW (250°)9.3 km/hClear
11:53 PM9.4 °C1.1 °C56 %1014.6 hPa16.1 kmWest (270°)11.1 km/hClear
Hourly data recorded from KILM, located 0 kilometers away from Wilmington, North Carolina







STORIES FROM OUR PARTNERS